STARLINK-3550 (52373 NORAD) Tracking and Keplerian Element Data
This shows tracking and keplerian element data for the satellite.
Feedback or suggestion? Click here.
Element | Value |
Catalog | 52373 |
Name | STARLINK-3550 |
Epoch Orbit | 130 |
Epoch Day | 167.08334491 |
Epoch Year | 2022 |
RAAN | 202.6613 |
Inclination | 53.2136 |
Eccentricity | 0.0003012 |
Argument of Perigee | 10.5699 |
Mean Anonmoly | 298.4114 |
Mean Motion | 15.73160723 |
Decay Rate | 0.00074881 |
L1 | 1 52373U 22045AU 22167.08334491 .00074881 00000+0 53402-3 0 9997 |
L2 | 2 52373 53.2136 202.6613 0003012 10.5699 298.4114 15.73160723 1306 |
Live tracking and technical data element details for STARLINK-3550 (NORAD 52373). STARLINK-3550 can be tracked NOW for your location showing map with azimuth and elevation plus other details from your city location.
Track the satellite on the map from your city or location and see movement details for azimuth, elevation, latitude, longitude, range, height, and movement on the map or in text.
IsCatalogInMostPopularTable: catalog: 52373, numindb: 2
Update: records affected: 1
GetName: 52373 STARLINK-3550
Hit Count: updated at: Mon, 27 Jun 2022 06:05:00 GMT